Location: Lynch Observatory
(39.9540°N, 75.1861°W)
Time: 19:45:36
(UTC-04:00)

ITUPSAT 1 - Visible Passes

Search period start: 18 April 2024 00:00
Search period end: 28 April 2024 00:00
Orbit: 695 x 707 km, 98.5° (Epoch: 18 April)

Date Brightness Start Highest point End Pass type
(mag) Time Alt. Az. Time Alt. Az. Time Alt. Az.
18 Apr ? 22:31:46 10° NNE 22:33:08 18° NE 22:33:08 18° NE visible
19 Apr ? 00:10:04 10° NNW 00:12:00 18° NW 00:12:00 18° NW visible
19 Apr ? 23:13:50 10° N 23:16:04 28° N 23:16:04 28° N visible
20 Apr ? 22:18:58 10° NE 22:20:07 16° NE 22:20:07 16° NE visible
20 Apr ? 23:56:38 10° N 23:58:58 23° NNW 23:58:58 23° NNW visible
21 Apr ? 23:00:45 10° NNE 23:03:02 29° NNE 23:03:02 29° NNE visible
22 Apr ? 00:40:59 10° NW 00:41:54 11° NW 00:41:54 11° NW visible
22 Apr ? 22:06:18 10° NE 22:07:05 13° NE 22:07:05 13° NE visible
22 Apr ? 23:43:18 10° N 23:45:57 28° NNW 23:45:57 28° NNW visible
23 Apr ? 22:47:43 10° NNE 22:49:59 27° NNE 22:49:59 27° NNE visible
24 Apr ? 00:26:51 10° NNW 00:28:51 15° NW 00:28:51 15° NW visible
24 Apr ? 21:53:51 10° NE 21:54:01 10° ENE 21:54:01 10° ENE visible
24 Apr ? 23:30:02 10° N 23:32:53 34° NNW 23:32:53 34° NNW visible
25 Apr ? 22:34:45 10° NNE 22:36:54 24° NE 22:36:54 24° NE visible
26 Apr ? 00:13:09 10° NNW 00:15:46 20° NW 00:15:46 20° NW visible
26 Apr ? 23:16:49 10° N 23:19:47 38° N 23:19:47 38° N visible
27 Apr ? 22:21:52 10° NE 22:23:48 21° NE 22:23:48 21° NE visible
